[[{"header":{"parameterUnit":"m.s-1","parameterCategory":2,"la1":30.2991,"la2":30.254,"lo1":-89.0895,"lo2":-89.0444,"dy":0.0017,"dx":0.0017,"nx":28,"ny":28,"refTime":"2023-08-12T03:00:00:Z","depth":"0","parameterNumber":2,"parameterNumberName":"U-component_of_CURRENTS"},"data":[0,0,0,0,0,0,0,0,0,0,0,0,0,0,0,0,0,0,0,0,0,0,0,0,0,0,0,0,0,0,0,0,0,0,0,0,0,0,0,0,0,0,0,0,0,0,0,0,0,0,0,0,0,0,0,0,0,0,0.595,0.5949,0,0.5871,0.587,0.5869,0.5763,0.5761,0.576,0.5758,0.5824,0.5827,0.583,0,0,0,0,0,0,0,0,0,0,0,0,0,0.5884,0.5886,0.595,0.5949,0.5949,0.5871,0.587,0.5869,0.5763,0.5761,0.5759,0.5758,0.5822,0.5826,0.583,0,0,0,0,0,0,0,0,0,0,0,0,0,0.5867,0.5887,0.595,0.5889,0.5883,0.5872,0.587,0.5868,0.5764,0.5761,0.5759,0.5757,0.5821,0.5826,0.583,0.5905,0,0,0.5845,0.5847,0,0,0,0,0,0,0,0,0.5869,0.587,0.5899,0.5893,0.5886,0.5827,0.587,0.5889,0.5764,0.5806,0.5758,0.5756,0.5842,0.5844,0.5829,0.5908,0.5911,0.5845,0.5848,0.585,0.5851,0,0,0,0,0,0,0,0.587,0.5872,0.5916,0.5898,0.5891,0.5822,0.5818,0.5872,0.5838,0.5802,0.5795,0.5791,0.5838,0.5824,0.583,0.5911,0.5845,0.5849,0.5852,0.5854,0.6019,0.6021,0,0,0,0,0,0,0.5895,0.5874,0.5918,0.5914,0.5875,0.5826,0.5821,0.5846,0.5834,0.5829,0.5793,0.5787,0.5817,0.5824,0.5832,0.5883,0.585,0.5854,0.5857,0.6018,0.602,0.6021,0,0,0,0,0,0,0.5895,0.5901,0.5922,0.5892,0.589,0.5831,0.5858,0.5846,0.5815,0.5826,0.5823,0.5774,0.5816,0.5825,0.5865,0.5887,0.5857,0.5861,0.6016,0.6018,0.6021,0.6011,0,0,0,0,0,0,0.5894,0.5902,0.593,0.5895,0.5893,0.5936,0.586,0.5846,0.5819,0.5809,0.5811,0.5814,0.5815,0.5858,0.587,0.5893,0.5865,0.6014,0.6017,0.602,0.601,0.6013,0.6016,0,0,0,0,0,0.5892,0.5947,0.5933,0.5938,0.5934,0.5938,0.5931,0.5877,0.5821,0.5834,0.5811,0.5813,0.5885,0.5863,0.5877,0.5901,0.6013,0.6016,0.602,0.6008,0.6012,0.6016,0,0,0,0,0,0,0.5936,0.5941,0.5924,0.5979,0.5967,0.5921,0.5929,0.588,0.5867,0.5855,0.5837,0.5842,0.5894,0.5905,0.5881,0.596,0.595,0.5956,0.5937,0.5941,0.5944,0.6007,0.5868,0,0,0,0,0,0.5963,0.5995,0.5987,0.6024,0.6029,0.5974,0.5965,0.5931,0.5912,0.5898,0.589,0.5895,0.5925,0.5933,0.5976,0.6019,0.6093,0.6045,0.6048,0.605,0.6112,0.6211,0.6229,0.6033,0.6033,0.6033,0,0,0.5982,0.5993,0.6006,0.6034,0.6015,0.6035,0.5963,0.5964,0.596,0.592,0.5921,0.5926,0.5945,0.5986,0.6009,0.5989,0.6145,0.6054,0.6056,0.6119,0.6217,0.6236,0.6253,0.6035,0.6035,0.6035,0,0,0.6048,0.6058,0.611,0.6111,0.6108,0.608,0.6082,0.6048,0.6018,0.603,0.5995,0.6016,0.6041,0.6056,0.6066,0.6125,0.6173,0.6119,0.6169,0.6261,0.6279,0.6295,0.641,0.6437,0.61,0.61,0.61,0,0.608,0.6135,0.6122,0.6169,0.6164,0.6103,0.6138,0.6115,0.6087,0.6072,0.6044,0.6078,0.6089,0.6134,0.6143,0.6137,0.6202,0.6138,0.6266,0.6284,0.6301,0.6416,0.6445,0.61,0.61,0.61,0.61,0,0.6175,0.6213,0.6241,0.6273,0.6274,0.6294,0.6263,0.6252,0.6198,0.616,0.619,0.6199,0.622,0.6209,0.6196,0.6301,0.6313,0.6269,0.6254,0.6321,0.6436,0.6468,0.61,0.61,0.61,0.61,0,0,0.6268,0.6304,0.6311,0.6314,0.6324,0.6319,0.6338,0.6324,0.6301,0.6296,0.6299,0.634,0.6325,0.6343,0.6323,0.6391,0.655,0.6381,0.6385,0.6495,0.6784,0.6563,0.6577,0.6512,0.6517,0.6521,0.6815,0,0.6344,0.642,0.6423,0.6456,0.6479,0.6435,0.6439,0.6412,0.6375,0.6367,0.6376,0.6392,0.6375,0.6381,0.6456,0.6517,0.6634,0.6478,0.6709,0.6719,0.6511,0.6605,0.6149,0.6352,0.6846,0.6851,0.6855,0,0.6437,0.6465,0.6523,0.6506,0.6512,0.652,0.6482,0.6483,0.6466,0.6445,0.6475,0.6469,0.6573,0.6545,0.676,0.6653,0.6767,0.6822,0.6833,0.6666,0.6555,0.6368,0.639,0.6227,0.6904,0.69,0.6896,0,0.6464,0.6519,0.6547,0.655,0.6547,0.6548,0.6532,0.6503,0.6472,0.6511,0.6507,0.6605,0.6652,0.6811,0.6895,0.6861,0.7124,0.7081,0.7021,0.7008,0.6693,0.6639,0.6583,0.7322,0.7322,0.7321,0.732,0,0.6529,0.6538,0.6555,0.6566,0.6556,0.6561,0.6534,0.653,0.6526,0.6492,0.6557,0.6572,0.6724,0.6835,0.6962,0.7058,0.7192,0.7093,0.7076,0.6671,0.6615,0.6514,0.6464,0.7332,0.7329,0.7327,0.7325,0,0.6524,0.6559,0.6569,0.6578,0.6569,0.6553,0.6505,0.6462,0.6506,0.6487,0.6513,0.6588,0.6712,0.6842,0.7078,0.71,0.7023,0.726,0.6772,0.669,0.6419,0.6384,0.628,0.6123,0.7269,0.7265,0.7262,0,0.6504,0.6528,0.6541,0.6512,0.6508,0.6478,0.6422,0.644,0.6393,0.6467,0.6448,0.6575,0.6584,0.681,0.6827,0.6992,0.6893,0.6725,0.6576,0.6378,0.6334,0.6208,0.6076,0.6188,0.6176,0.6167,0.6159,0,0.6444,0.6466,0.6466,0.6417,0.6373,0.6315,0.6263,0.6228,0.6247,0.6257,0.6256,0.6297,0.6403,0.6254,0.6413,0.6485,0.6314,0.6535,0.6448,0.5595,0.5341,0.5182,0.6068,0.6074,0.6083,0.6089,0.6093,0.6097,0.6348,0.6331,0.6326,0.6246,0.62,0.6108,0.5963,0.5941,0.5877,0.5731,0.5955,0.5807,0.5768,0.5849,0.5872,0.5595,0.5796,0.5458,0.5486,0.5422,0.507,0.5778,0.5661,0.5667,0.5672,0.5676,0.568,0,0.6164,0.6161,0.6116,0.6008,0.5852,0.5903,0.5772,0.5553,0.5376,0.5349,0.5272,0.5055,0.489,0.487,0.471,0.4575,0.445,0.4489,0.4205,0.4176,0.489,0.4629,0.413,0.413,0.413,0.413,0.413,0.4131,0.6071,0.5965,0.5941,0.5653,0.5552,0.5224,0.5089,0.4856,0.4728,0.4366,0.4123,0.412,0.4255,0.4168,0.3939,0.3838,0.3662,0.3413,0.3648,0.411,0.4202,0.429,0.4033,0.3417,0.3416,0.2661,0.2655,0.265]},{"header":{"parameterUnit":"m.s-1","parameterCategory":2,"la1":30.2991,"la2":30.254,"lo1":-89.0895,"lo2":-89.0444,"dy":0.0017,"dx":0.0017,"nx":28,"ny":28,"refTime":"2023-08-12T03:00:00:Z","depth":"0","parameterNumber":3,"parameterNumberName":"V-component_of_CURRENTS"},"data":[0,0,0,0,0,0,0,0,0,0,0,0,0,0,0,0,0,0,0,0,0,0,0,0,0,0,0,0,0,0,0,0,0,0,0,0,0,0,0,0,0,0,0,0,0,0,0,0,0,0,0,0,0,0,0,0,0,0,0.0297,0.0297,0,0.0269,0.0268,0.0268,0.0193,0.0192,0.019,0.0189,0.0143,0.0143,0.0143,0,0,0,0,0,0,0,0,0,0,0,0,0,0.0261,0.0261,0.0297,0.0297,0.0298,0.0269,0.0268,0.0268,0.0193,0.0192,0.019,0.0189,0.0143,0.0143,0.0143,0,0,0,0,0,0,0,0,0,0,0,0,0,0.0255,0.0262,0.0297,0.026,0.0257,0.0269,0.0268,0.0267,0.0193,0.0191,0.019,0.0188,0.0143,0.0143,0.0143,0.0177,0,0,0.0142,0.0142,0,0,0,0,0,0,0,0,0.0255,0.0256,0.0266,0.0263,0.0259,0.0237,0.0239,0.0238,0.0194,0.0213,0.0189,0.0187,0.0177,0.0174,0.0166,0.0175,0.0173,0.0142,0.0142,0.0142,0.0142,0,0,0,0,0,0,0,0.0256,0.0256,0.0282,0.0266,0.0262,0.0236,0.0233,0.0238,0.0201,0.0211,0.0207,0.0211,0.0174,0.0167,0.0165,0.0172,0.0142,0.0142,0.0142,0.0142,0.0242,0.0245,0,0,0,0,0,0,0.0272,0.0257,0.0283,0.0281,0.0258,0.0239,0.0235,0.0242,0.0201,0.0195,0.0213,0.0208,0.0168,0.0165,0.0163,0.0236,0.0142,0.0142,0.0142,0.0239,0.0243,0.0246,0,0,0,0,0,0,0.0271,0.0275,0.0284,0.0272,0.0271,0.0242,0.025,0.0242,0.0232,0.0204,0.0196,0.021,0.0166,0.0163,0.0181,0.0232,0.0142,0.0141,0.0236,0.024,0.0244,0.0361,0,0,0,0,0,0,0.027,0.0275,0.0285,0.0273,0.0273,0.03,0.0252,0.0243,0.024,0.0233,0.0199,0.0193,0.0165,0.0182,0.0181,0.023,0.0141,0.0232,0.0238,0.0243,0.0354,0.0369,0.0381,0,0,0,0,0,0.0269,0.0284,0.0286,0.0289,0.0289,0.0302,0.0299,0.0268,0.0242,0.0249,0.0232,0.0194,0.0214,0.0184,0.0182,0.0233,0.023,0.0236,0.0242,0.0347,0.0366,0.0381,0,0,0,0,0,0,0.0252,0.0279,0.0279,0.0296,0.0308,0.0291,0.0294,0.0279,0.027,0.0262,0.0224,0.0219,0.0258,0.0233,0.0201,0.028,0.0219,0.0225,0.0299,0.0316,0.033,0.0364,0.0141,0,0,0,0,0,0.0265,0.0294,0.0306,0.0321,0.033,0.0317,0.0318,0.0306,0.0298,0.029,0.0277,0.0271,0.0286,0.0288,0.0293,0.0333,0.0332,0.0368,0.0382,0.0393,0.0423,0.048,0.0502,0.0266,0.0266,0.0266,0,0,0.0256,0.0282,0.0291,0.0322,0.0323,0.0352,0.0311,0.0323,0.0356,0.0291,0.0329,0.032,0.0309,0.0355,0.0371,0.0337,0.0457,0.0401,0.0411,0.0435,0.0489,0.0512,0.0532,0.027,0.027,0.0269,0,0,0.0265,0.0286,0.0314,0.0339,0.0368,0.0376,0.0386,0.0392,0.0403,0.0444,0.0415,0.0444,0.045,0.0467,0.0471,0.057,0.0531,0.0565,0.066,0.0716,0.0736,0.0753,0.0764,0.0781,0.0569,0.0569,0.0569,0,0.0256,0.03,0.0321,0.0361,0.0389,0.0393,0.0429,0.0454,0.047,0.0506,0.0471,0.0536,0.0514,0.0595,0.0624,0.0604,0.0611,0.0592,0.0735,0.0752,0.0768,0.0774,0.0792,0.0575,0.0575,0.0574,0.0573,0,0.0291,0.033,0.035,0.0416,0.0449,0.0482,0.0529,0.0573,0.0591,0.0621,0.0708,0.07,0.074,0.0741,0.0708,0.0821,0.0779,0.0746,0.0691,0.0799,0.0798,0.0815,0.0585,0.0582,0.058,0.0579,0,0,0.0271,0.0357,0.0367,0.0418,0.0485,0.0523,0.0602,0.0687,0.0761,0.0798,0.09,0.0931,0.0937,0.0945,0.0923,0.0968,0.1066,0.091,0.091,0.0919,0.1166,0.1011,0.1013,0.1058,0.1062,0.1065,0.1113,0,0.0295,0.0382,0.042,0.0513,0.0567,0.0618,0.0701,0.0784,0.0851,0.0958,0.1001,0.1076,0.1013,0.1039,0.1086,0.1085,0.112,0.1055,0.1063,0.1063,0.0911,0.1031,0.0939,0.0964,0.1129,0.1131,0.1133,0,0.0332,0.0394,0.0478,0.06,0.0628,0.0684,0.0836,0.091,0.1056,0.111,0.1203,0.1232,0.1328,0.1248,0.1323,0.1285,0.1243,0.1224,0.1225,0.1057,0.094,0.0887,0.0987,0.0776,0.1158,0.1156,0.1154,0,0.0349,0.0447,0.0524,0.0561,0.0686,0.0747,0.082,0.0958,0.1067,0.1214,0.1311,0.1404,0.1475,0.1475,0.1428,0.1391,0.1489,0.1424,0.1244,0.123,0.1143,0.1114,0.1042,0.1476,0.1476,0.1476,0.1476,0,0.0393,0.0465,0.0539,0.0591,0.0714,0.0778,0.0934,0.1018,0.1179,0.1355,0.1392,0.1547,0.1541,0.159,0.1513,0.1436,0.1554,0.1295,0.1254,0.1175,0.115,0.095,0.0855,0.1477,0.1477,0.1477,0.1477,0,0.0436,0.0474,0.0576,0.0685,0.0731,0.0824,0.1007,0.1139,0.1251,0.1485,0.1543,0.1691,0.1744,0.1685,0.1685,0.1537,0.1332,0.1395,0.1272,0.1215,0.0799,0.0715,0.06,0.054,0.1219,0.1216,0.1213,0,0.0472,0.052,0.0639,0.0718,0.0776,0.0916,0.1042,0.1173,0.1335,0.1596,0.1738,0.1832,0.1966,0.186,0.1594,0.1406,0.1253,0.1148,0.1049,0.0789,0.0669,0.0588,0.0543,0.0984,0.0979,0.0976,0.0973,0,0.0544,0.0573,0.0664,0.0814,0.0938,0.1106,0.1289,0.1425,0.1628,0.1821,0.21,0.2212,0.2054,0.1832,0.1467,0.1311,0.0952,0.106,0.0868,0.0547,0.0389,0.0305,0.0904,0.0941,0.0944,0.0947,0.0948,0.095,0.0598,0.0675,0.0786,0.095,0.1105,0.1328,0.1487,0.1699,0.1971,0.2267,0.2342,0.2502,0.2051,0.155,0.1278,0.0615,0.0706,0.0423,0.0367,0.0326,0.0195,0.0679,0.0606,0.0607,0.0608,0.0609,0.061,0,0.0674,0.0782,0.0929,0.1146,0.1362,0.1413,0.1695,0.1863,0.2197,0.2407,0.2618,0.2434,0.1892,0.1326,0.0439,0.0012,-0.0091,-0.0196,-0.0293,-0.0281,0.0217,0.0127,-0.0147,-0.0147,-0.0146,-0.0146,-0.0146,-0.0146,0.0729,0.0887,0.0984,0.1353,0.1522,0.1791,0.196,0.2169,0.235,0.2578,0.2619,0.2631,0.2157,0.0647,-0.0359,-0.0551,-0.0741,-0.0885,-0.0905,-0.0574,-0.0519,-0.0467,-0.0574,-0.0991,-0.0992,-0.1389,-0.1394,-0.1397]}],[{"header":{"parameterUnit":"m.s-1","parameterCategory":2,"la1":30.2991,"la2":30.254,"lo1":-89.0895,"lo2":-89.0444,"dy":0.0017,"dx":0.0017,"nx":28,"ny":28,"refTime":"2023-08-12T03:00:00:Z","depth":"2","parameterNumber":2,"parameterNumberName":"U-component_of_CURRENTS"},"data":[0,0,0,0,0,0,0,0,0,0,0,0,0,0,0,0,0,0,0,0,0,0,0,0,0,0,0,0,0,0,0,0,0,0,0,0,0,0,0,0,0,0,0,0,0,0,0,0,0,0,0,0,0,0,0,0,0,0,0.3714,0.3716,0,0.3887,0.3889,0.389,0.4078,0.4082,0.4085,0.4088,0.4298,0.43,0.4303,0,0,0,0,0,0,0,0,0,0,0,0,0,0.3685,0.3683,0.3714,0.3716,0.3719,0.3887,0.3889,0.3891,0.4078,0.4082,0.4086,0.4089,0.4297,0.43,0.4303,0,0,0,0,0,0,0,0,0,0,0,0,0,0.3755,0.3682,0.3713,0.3837,0.385,0.3887,0.3889,0.3891,0.4077,0.4082,0.4087,0.4091,0.4296,0.43,0.4303,0.4229,0,0,0.4315,0.4317,0,0,0,0,0,0,0,0,0.3751,0.3755,0.3816,0.3829,0.3844,0.3972,0.3956,0.4008,0.4076,0.3984,0.4088,0.4094,0.4192,0.4205,0.4217,0.4239,0.4248,0.4315,0.4318,0.4319,0.432,0,0,0,0,0,0,0,0.3746,0.375,0.3776,0.3819,0.3836,0.3933,0.3946,0.3967,0.4055,0.3993,0.4008,0.4036,0.42,0.4213,0.4224,0.4251,0.4315,0.4319,0.4321,0.4322,0.4626,0.4631,0,0,0,0,0,0,0.3723,0.3743,0.3771,0.3782,0.3815,0.3929,0.3944,0.392,0.4054,0.4081,0.4031,0.4044,0.4204,0.4219,0.4232,0.443,0.4319,0.4323,0.4325,0.462,0.4627,0.4633,0,0,0,0,0,0,0.372,0.3721,0.3764,0.3776,0.3789,0.3924,0.3897,0.3921,0.4012,0.4084,0.4112,0.4107,0.4209,0.4227,0.4361,0.4429,0.4325,0.4328,0.4613,0.4622,0.463,0.4647,0,0,0,0,0,0,0.3718,0.3717,0.3725,0.3772,0.3788,0.3861,0.3893,0.3922,0.402,0.404,0.4155,0.4176,0.4214,0.4355,0.4364,0.4433,0.4331,0.4606,0.4617,0.4627,0.4639,0.4655,0.4669,0,0,0,0,0,0.3715,0.369,0.3722,0.3729,0.3779,0.3864,0.3883,0.3992,0.4019,0.4084,0.4178,0.4177,0.4433,0.4361,0.4371,0.4442,0.4601,0.4614,0.4627,0.4633,0.4652,0.4669,0,0,0,0,0,0,0.3711,0.3709,0.3745,0.3731,0.3833,0.3901,0.3967,0.4013,0.4127,0.4169,0.4216,0.4244,0.4389,0.4426,0.4346,0.4578,0.4528,0.4544,0.453,0.4549,0.4563,0.4597,0.4334,0,0,0,0,0,0.3699,0.3669,0.3737,0.3746,0.3794,0.3883,0.3938,0.4018,0.4108,0.4165,0.4261,0.4365,0.4431,0.4501,0.4579,0.4675,0.4696,0.4749,0.4764,0.4775,0.4821,0.4964,0.4994,0.4676,0.4676,0.4675,0,0,0.3705,0.3702,0.3695,0.3745,0.3824,0.3871,0.3931,0.4044,0.4104,0.4163,0.4316,0.4407,0.4469,0.4604,0.4674,0.4654,0.4855,0.4792,0.48,0.4841,0.4981,0.5011,0.5038,0.4685,0.4683,0.4682,0,0,0.3674,0.3707,0.3673,0.3742,0.3862,0.3924,0.3964,0.4098,0.42,0.4333,0.4396,0.4549,0.4667,0.4749,0.4779,0.4922,0.4917,0.497,0.5076,0.5213,0.5238,0.5262,0.5204,0.5223,0.4991,0.4991,0.4991,0,0.3675,0.3645,0.3703,0.3709,0.3778,0.3937,0.3975,0.4071,0.4252,0.4341,0.4413,0.4653,0.4726,0.4834,0.4942,0.4947,0.4986,0.4975,0.5225,0.525,0.5274,0.521,0.523,0.4994,0.4993,0.4993,0.4993,0,0.3619,0.3632,0.3645,0.3676,0.3766,0.385,0.3986,0.4133,0.4279,0.4383,0.4606,0.4751,0.4906,0.4962,0.5005,0.5216,0.5164,0.5201,0.5155,0.5306,0.5228,0.5249,0.4997,0.4996,0.4995,0.4995,0,0,0.3493,0.3574,0.3584,0.3628,0.377,0.384,0.3969,0.4136,0.4248,0.4481,0.4632,0.4839,0.4991,0.5049,0.5143,0.5316,0.5486,0.5383,0.5389,0.5278,0.5688,0.5356,0.5344,0.56,0.5607,0.5613,0.5517,0,0.3444,0.3453,0.3507,0.3584,0.363,0.381,0.3916,0.41,0.4301,0.4506,0.4705,0.4893,0.4986,0.5125,0.5306,0.5485,0.5569,0.5502,0.5605,0.5604,0.5256,0.537,0.5033,0.4901,0.5537,0.554,0.5543,0,0.3366,0.3387,0.344,0.3576,0.3618,0.3695,0.395,0.4071,0.4352,0.4522,0.4757,0.4924,0.5201,0.528,0.559,0.5567,0.5647,0.5747,0.5745,0.5465,0.5317,0.4889,0.4914,0.5576,0.5574,0.5571,0.5569,0,0.3285,0.3348,0.3406,0.3447,0.3611,0.3706,0.3841,0.4103,0.4267,0.4572,0.4753,0.5018,0.524,0.5438,0.5649,0.5682,0.5934,0.5952,0.5655,0.5622,0.5369,0.5303,0.6126,0.6126,0.6127,0.6127,0.6127,0,0.3209,0.3256,0.3386,0.3413,0.3523,0.3675,0.386,0.4035,0.4329,0.4523,0.4788,0.4976,0.535,0.5521,0.5647,0.5681,0.5895,0.5682,0.5625,0.5346,0.5283,0.5936,0.5915,0.6123,0.6124,0.6125,0.6125,0,0.3135,0.3213,0.3263,0.3417,0.3487,0.3583,0.3864,0.4008,0.4301,0.457,0.4691,0.5041,0.5243,0.5421,0.5703,0.5647,0.5711,0.5631,0.5169,0.506,0.5281,0.5264,0.5302,0.5291,0.5281,0.5273,0.5266,0,0.3111,0.3127,0.3246,0.33,0.3382,0.3555,0.369,0.398,0.4139,0.4569,0.4675,0.4963,0.508,0.5224,0.5218,0.5189,0.543,0.4796,0.4804,0.5281,0.5222,0.522,0.5215,0.4423,0.441,0.4399,0.439,0,0.3045,0.309,0.3129,0.3248,0.3367,0.3478,0.3691,0.3803,0.4149,0.4365,0.4599,0.4722,0.482,0.4654,0.4582,0.4545,0.478,0.4563,0.529,0.4658,0.4439,0.4385,0.4413,0.4295,0.4304,0.4311,0.4316,0.432,0.3008,0.3026,0.3107,0.323,0.3346,0.3452,0.3489,0.3664,0.3865,0.4079,0.4271,0.4288,0.4301,0.4008,0.3873,0.3794,0.4122,0.3998,0.404,0.4091,0.3982,0.3757,0.3452,0.3456,0.346,0.3464,0.3467,0,0.2977,0.3056,0.3121,0.3217,0.3274,0.3396,0.3533,0.3473,0.3573,0.3693,0.3772,0.3433,0.3284,0.3331,0.3061,0.2992,0.3077,0.2886,0.3023,0.3117,0.3201,0.3057,0.2277,0.2273,0.2269,0.2266,0,0,0.2979,0.3022,0.3077,0.3172,0.3244,0.3243,0.3283,0.3159,0.3159,0.3031,0.2988,0.3091,0.322,0.2699,0.2613,0.2419,0.2764,0.2326,0.3287,0.3546,0.3626,0.3844,0.3724,0,0,0,0,0]},{"header":{"parameterUnit":"m.s-1","parameterCategory":2,"la1":30.2991,"la2":30.254,"lo1":-89.0895,"lo2":-89.0444,"dy":0.0017,"dx":0.0017,"nx":28,"ny":28,"refTime":"2023-08-12T03:00:00:Z","depth":"2","parameterNumber":3,"parameterNumberName":"V-component_of_CURRENTS"},"data":[0,0,0,0,0,0,0,0,0,0,0,0,0,0,0,0,0,0,0,0,0,0,0,0,0,0,0,0,0,0,0,0,0,0,0,0,0,0,0,0,0,0,0,0,0,0,0,0,0,0,0,0,0,0,0,0,0,0,-0.0292,-0.0293,0,-0.0336,-0.0336,-0.0337,-0.0377,-0.0378,-0.0378,-0.0379,-0.05,-0.0502,-0.0505,0,0,0,0,0,0,0,0,0,0,0,0,0,-0.0315,-0.0314,-0.0292,-0.0293,-0.0293,-0.0336,-0.0336,-0.0337,-0.0377,-0.0378,-0.0378,-0.0379,-0.0499,-0.0502,-0.0505,0,0,0,0,0,0,0,0,0,0,0,0,0,-0.0326,-0.0313,-0.0292,-0.0319,-0.0322,-0.0335,-0.0336,-0.0337,-0.0377,-0.0378,-0.0379,-0.0379,-0.0498,-0.0502,-0.0506,-0.0515,0,0,-0.0518,-0.052,0,0,0,0,0,0,0,0,-0.0325,-0.0325,-0.0314,-0.0317,-0.032,-0.0352,-0.0388,-0.04,-0.0377,-0.0356,-0.0379,-0.038,-0.0457,-0.0465,-0.047,-0.0521,-0.0526,-0.0519,-0.0521,-0.0523,-0.0524,0,0,0,0,0,0,0,-0.0324,-0.0323,-0.0309,-0.0315,-0.0319,-0.0353,-0.0354,-0.0391,-0.0403,-0.0358,-0.0361,-0.0366,-0.0459,-0.0465,-0.0473,-0.0528,-0.0519,-0.0522,-0.0525,-0.0526,-0.048,-0.0476,0,0,0,0,0,0,-0.0314,-0.0322,-0.0308,-0.0311,-0.0325,-0.0351,-0.0353,-0.0341,-0.0401,-0.041,-0.0365,-0.0367,-0.0458,-0.0468,-0.0477,-0.042,-0.0523,-0.0527,-0.0529,-0.0483,-0.0479,-0.0475,0,0,0,0,0,0,-0.0314,-0.0312,-0.0306,-0.0319,-0.0321,-0.035,-0.0336,-0.0341,-0.0351,-0.0405,-0.0416,-0.0369,-0.0459,-0.0472,-0.0468,-0.0428,-0.0529,-0.0532,-0.0488,-0.0482,-0.0477,-0.0352,0,0,0,0,0,0,-0.0314,-0.0311,-0.0302,-0.0317,-0.032,-0.0298,-0.0335,-0.0342,-0.0353,-0.0357,-0.0413,-0.0425,-0.0461,-0.0461,-0.0472,-0.0436,-0.0536,-0.0492,-0.0485,-0.0478,-0.0361,-0.0343,-0.0328,0,0,0,0,0,-0.0315,-0.0291,-0.0301,-0.03,-0.0304,-0.0297,-0.03,-0.0325,-0.0352,-0.0341,-0.0358,-0.0423,-0.0424,-0.0461,-0.0475,-0.0439,-0.0496,-0.0487,-0.0479,-0.0369,-0.0347,-0.0328,0,0,0,0,0,0,-0.0307,-0.0294,-0.0305,-0.0282,-0.0285,-0.0304,-0.03,-0.0322,-0.0329,-0.0334,-0.039,-0.04,-0.0384,-0.0416,-0.0456,-0.0396,-0.0466,-0.046,-0.0377,-0.0357,-0.0341,-0.0328,-0.0539,0,0,0,0,0,-0.0297,-0.0273,-0.0275,-0.0261,-0.0256,-0.028,-0.0285,-0.0297,-0.0306,-0.0311,-0.0333,-0.0349,-0.0358,-0.0362,-0.0377,-0.0355,-0.0388,-0.0331,-0.0315,-0.0301,-0.0293,-0.0228,-0.0206,-0.0447,-0.0447,-0.0448,0,0,-0.03,-0.0285,-0.0278,-0.0257,-0.0264,-0.0235,-0.0284,-0.0277,-0.0252,-0.0324,-0.0285,-0.0306,-0.0339,-0.0302,-0.0296,-0.0327,-0.0263,-0.029,-0.0278,-0.0279,-0.0217,-0.0194,-0.0173,-0.0442,-0.0443,-0.0444,0,0,-0.0266,-0.0267,-0.0225,-0.0214,-0.0204,-0.021,-0.0204,-0.02,-0.0197,-0.0167,-0.0199,-0.0182,-0.0198,-0.0192,-0.0202,-0.0103,-0.0183,-0.0105,-0.0011,0.0054,0.0073,0.009,0.0009,0.0018,-0.0088,-0.0087,-0.0087,0,-0.0268,-0.0207,-0.0218,-0.0169,-0.0154,-0.019,-0.0145,-0.0143,-0.0132,-0.0111,-0.0135,-0.01,-0.0142,-0.009,-0.0048,-0.007,-0.0085,-0.0093,0.0074,0.0091,0.0106,0.0019,0.0027,-0.008,-0.0081,-0.0082,-0.0083,0,-0.0188,-0.0149,-0.0124,-0.0067,-0.0058,-0.0024,-0.0021,0.0005,0.0001,0.001,0.0066,0.005,0.007,0.0072,0.0031,0.0131,0.0061,0.0077,0.0016,0.0138,0.0037,0.0043,-0.007,-0.0073,-0.0075,-0.0077,0,0,-0.0143,-0.0078,-0.0069,-0.0023,0.0004,0.0028,0.007,0.0114,0.0156,0.018,0.0255,0.0255,0.0249,0.0241,0.0215,0.0272,0.0328,0.0233,0.0233,0.0135,0.0381,0.0288,0.0283,0.0398,0.0402,0.0405,0.0239,0,-0.0068,0.0037,0.0042,0.0132,0.0196,0.0175,0.022,0.0245,0.0264,0.0333,0.0333,0.038,0.0312,0.0335,0.0385,0.0374,0.0365,0.0364,0.0292,0.0286,0.018,0.0298,0.0308,0.0163,0.0245,0.0246,0.0247,0,0.0043,0.0099,0.0189,0.0264,0.0285,0.0306,0.0372,0.0406,0.046,0.0481,0.053,0.0532,0.0591,0.0532,0.0545,0.056,0.0463,0.0432,0.0426,0.0307,0.021,0.0073,0.0171,0.0256,0.0256,0.0255,0.0254,0,0.0137,0.022,0.0289,0.0313,0.0374,0.039,0.0405,0.0446,0.0524,0.0571,0.0662,0.0688,0.0757,0.0704,0.0628,0.0601,0.0637,0.0579,0.0365,0.0349,0.0325,0.0304,0.0553,0.0553,0.0554,0.0554,0.0555,0,0.0264,0.0326,0.0323,0.0376,0.0457,0.0448,0.0543,0.0557,0.0641,0.0791,0.074,0.0899,0.0833,0.0853,0.0699,0.0573,0.0678,0.0386,0.0344,0.0358,0.0344,0.0416,0.0402,0.0548,0.0549,0.055,0.0552,0,0.0384,0.0381,0.0475,0.0506,0.0513,0.056,0.0642,0.0751,0.0768,0.0971,0.1013,0.1107,0.1097,0.0954,0.0871,0.0686,0.0545,0.0442,0.0386,0.0342,0.0151,0.0146,0.0152,0.0148,0.0145,0.0142,0.014,0,0.0455,0.0513,0.0565,0.0608,0.0613,0.0676,0.0769,0.0814,0.0978,0.1141,0.1316,0.1321,0.1381,0.1147,0.0832,0.0474,0.0485,0.0236,0.0181,0.0173,0.0131,0.0131,0.013,0.0145,0.0143,0.0141,0.014,0,0.0598,0.0595,0.0667,0.0751,0.0828,0.0987,0.1123,0.1271,0.1394,0.1536,0.177,0.1782,0.15,0.12,0.0677,0.0453,0.0293,0.0183,0.0298,0.0252,0.0158,0.0118,0.012,0.0125,0.0127,0.0128,0.0129,0.0129,0.0685,0.0754,0.0825,0.0925,0.1037,0.1292,0.1439,0.1635,0.1878,0.2036,0.2068,0.2005,0.1618,0.092,0.0544,0.0125,0.0124,-0.0026,-0.0015,-0.0005,0.0033,-0.0059,-0.0137,-0.0137,-0.0137,-0.0137,-0.0137,0,0.0817,0.0884,0.0995,0.1166,0.1365,0.1391,0.1691,0.182,0.2089,0.2172,0.2222,0.181,0.1406,0.0957,0.0294,-0.0104,-0.0097,-0.0198,-0.0096,-0.0081,-0.0068,-0.0028,-0.0217,-0.0218,-0.0219,-0.022,0,0,0.0886,0.1031,0.111,0.1434,0.1562,0.1804,0.1974,0.2108,0.2177,0.22,0.2117,0.1954,0.147,0.098,0.0475,0.0127,0.0113,0.006,0.0158,0.035,0.0369,0.0057,0.0137,0,0,0,0,0]}],[{"header":{"parameterUnit":"m.s-1","parameterCategory":2,"la1":30.2991,"la2":30.254,"lo1":-89.0895,"lo2":-89.0444,"dy":0.0017,"dx":0.0017,"nx":28,"ny":28,"refTime":"2023-08-12T03:00:00:Z","depth":"4","parameterNumber":2,"parameterNumberName":"U-component_of_CURRENTS"},"data":[0,0,0,0,0,0,0,0,0,0,0,0,0,0,0,0,0,0,0,0,0,0,0,0,0,0,0,0,0,0,0,0,0,0,0,0,0,0,0,0,0,0,0,0,0,0,0,0,0,0,0,0,0,0,0,0,0,0,0.063,0.0631,0,0.0726,0.0727,0.0728,0.0725,0.0724,0.0722,0.0721,0.0825,0.0829,0.0833,0,0,0,0,0,0,0,0,0,0,0,0,0,0.0531,0.0532,0.063,0.0631,0.0632,0.0726,0.0727,0.0729,0.0725,0.0723,0.0722,0.072,0.0824,0.0829,0.0834,0,0,0,0,0,0,0,0,0,0,0,0,0,0.0596,0.0533,0.063,0.0641,0.0642,0.0725,0.0727,0.0729,0.0726,0.0723,0.0721,0.0719,0.0822,0.0828,0.0834,0.0916,0,0,0.0853,0.0856,0,0,0,0,0,0,0,0,0.0592,0.06,0.0638,0.064,0.0642,0.071,0.0731,0.0792,0.0726,0.0695,0.0721,0.0718,0.0788,0.0797,0.0822,0.0921,0.0926,0.0854,0.0858,0.086,0.0862,0,0,0,0,0,0,0,0.0588,0.0596,0.0669,0.0639,0.0642,0.0671,0.0677,0.0743,0.0754,0.0698,0.0698,0.0707,0.0789,0.0816,0.0824,0.0927,0.0854,0.0859,0.0863,0.0866,0.106,0.1061,0,0,0,0,0,0,0.0572,0.0592,0.0666,0.0672,0.061,0.0674,0.0681,0.0692,0.0753,0.076,0.0709,0.0707,0.0806,0.0817,0.0828,0.0953,0.086,0.0866,0.087,0.1059,0.106,0.1062,0,0,0,0,0,0,0.0569,0.0577,0.0662,0.0633,0.0645,0.0677,0.069,0.0695,0.0741,0.0761,0.0768,0.0751,0.0805,0.0819,0.0903,0.0955,0.0869,0.0875,0.1057,0.1059,0.1061,0.1187,0,0,0,0,0,0,0.0566,0.0576,0.0593,0.0632,0.0646,0.0707,0.0692,0.0698,0.0748,0.0747,0.0801,0.0806,0.0804,0.0894,0.0909,0.0962,0.0879,0.1055,0.1058,0.106,0.1181,0.1193,0.1204,0,0,0,0,0,0.0562,0.0584,0.0594,0.0603,0.0664,0.0708,0.0719,0.0735,0.0753,0.0772,0.0819,0.0806,0.092,0.0902,0.0919,0.0975,0.1054,0.1057,0.106,0.1176,0.1191,0.1203,0,0,0,0,0,0,0.0555,0.0587,0.0598,0.063,0.0666,0.0707,0.0736,0.0763,0.0822,0.0828,0.0854,0.0865,0.0955,0.0946,0.0925,0.103,0.0974,0.0981,0.1056,0.107,0.1081,0.1136,0.0885,0,0,0,0,0,0.0562,0.059,0.0621,0.0656,0.0671,0.0719,0.0749,0.0761,0.081,0.0834,0.0883,0.0925,0.0982,0.101,0.1051,0.1132,0.1129,0.1165,0.1177,0.1186,0.1239,0.1249,0.1267,0.1073,0.1072,0.1072,0,0,0.0568,0.0597,0.061,0.0658,0.0691,0.0727,0.0732,0.0778,0.0834,0.0841,0.0948,0.0986,0.1015,0.1095,0.1131,0.1095,0.1238,0.1191,0.12,0.1247,0.1254,0.1273,0.129,0.1075,0.1074,0.1074,0,0,0.0595,0.0622,0.0648,0.0675,0.0723,0.0755,0.0776,0.0837,0.0886,0.0991,0.1006,0.1078,0.1171,0.1196,0.1223,0.1324,0.1307,0.1326,0.1432,0.144,0.1457,0.1472,0.1491,0.1507,0.132,0.1321,0.1321,0,0.059,0.0648,0.0665,0.0696,0.0734,0.0772,0.0816,0.0875,0.0965,0.1045,0.1029,0.1212,0.1221,0.1341,0.1372,0.1356,0.1367,0.1382,0.1458,0.1473,0.1486,0.1502,0.1518,0.1327,0.1326,0.1326,0.1325,0,0.0635,0.0681,0.0704,0.0758,0.0794,0.0845,0.0905,0.0995,0.1075,0.1142,0.1303,0.1338,0.1447,0.1445,0.1458,0.1568,0.1548,0.148,0.1431,0.1514,0.1524,0.1539,0.1336,0.1334,0.1332,0.1331,0,0,0.0616,0.0715,0.0725,0.0777,0.0838,0.0881,0.0996,0.1127,0.1258,0.1337,0.1493,0.1595,0.1642,0.1676,0.1684,0.17,0.1789,0.1656,0.1653,0.1691,0.1841,0.1715,0.1717,0.1742,0.1745,0.1748,0.1811,0,0.0653,0.0737,0.0781,0.0879,0.0925,0.1008,0.1134,0.1252,0.1371,0.1523,0.159,0.1743,0.1716,0.1806,0.1814,0.1836,0.1835,0.1781,0.1744,0.1744,0.1633,0.1732,0.1758,0.1821,0.1824,0.1827,0.1828,0,0.0675,0.0744,0.0838,0.0992,0.1026,0.1104,0.1329,0.1428,0.1625,0.1749,0.1883,0.1944,0.2076,0.198,0.2061,0.2042,0.1968,0.1929,0.1927,0.1787,0.1645,0.1718,0.1853,0.1851,0.1849,0.1848,0.1846,0,0.0664,0.0785,0.0883,0.0917,0.1085,0.1199,0.1307,0.151,0.1642,0.189,0.1994,0.2166,0.2218,0.2235,0.2181,0.216,0.2182,0.2113,0.1913,0.1903,0.194,0.1923,0.2096,0.2096,0.2096,0.2096,0.2096,0,0.0678,0.0752,0.0902,0.0955,0.1126,0.122,0.1428,0.1601,0.1807,0.1904,0.2091,0.2189,0.2278,0.2283,0.2249,0.2151,0.2233,0.1986,0.1925,0.1988,0.1976,0.195,0.1932,0.2098,0.2098,0.2097,0.2097,0,0.0623,0.0723,0.0837,0.1042,0.1117,0.1222,0.146,0.1593,0.1823,0.1933,0.2024,0.2233,0.2316,0.2327,0.2326,0.2188,0.2147,0.2035,0.2143,0.2078,0.1857,0.1845,0.1927,0.1923,0.192,0.1918,0.1916,0,0.0603,0.0658,0.0862,0.0938,0.1035,0.1209,0.1328,0.1591,0.1675,0.1914,0.1917,0.2097,0.2179,0.217,0.2184,0.2164,0.2053,0.2007,0.1935,0.1915,0.1848,0.184,0.1833,0.1911,0.191,0.1909,0.1908,0,0.0557,0.0635,0.0723,0.0863,0.0989,0.1131,0.128,0.1373,0.1577,0.1748,0.1889,0.198,0.2004,0.2114,0.2067,0.2015,0.2085,0.1974,0.1979,0.1912,0.1896,0.1831,0.1827,0.1898,0.1899,0.19,0.1901,0,0.0502,0.0547,0.0655,0.0769,0.0915,0.1025,0.1139,0.126,0.1415,0.1645,0.1667,0.1849,0.1991,0.2024,0.1996,0.1971,0.1928,0.1819,0.1832,0.1843,0.1774,0.1739,0.1685,0,0,0,0,0,0.0463,0.0499,0.0564,0.0699,0.0824,0.0931,0.1086,0.1182,0.1336,0.14,0.1564,0.1625,0.1718,0.1852,0.1805,0.1869,0.187,0.1792,0.1736,0.1839,0.1851,0.177,0,0,0,0,0,0,0.0437,0.0493,0.0514,0.0595,0.0697,0.0829,0.0957,0.1053,0.1137,0.1308,0.1431,0.1506,0.1673,0.1758,0.1786,0.179,0.1708,0.1891,0.1885,0.1832,0.1843,0.1853,0.1773,0,0,0,0,0]},{"header":{"parameterUnit":"m.s-1","parameterCategory":2,"la1":30.2991,"la2":30.254,"lo1":-89.0895,"lo2":-89.0444,"dy":0.0017,"dx":0.0017,"nx":28,"ny":28,"refTime":"2023-08-12T03:00:00:Z","depth":"4","parameterNumber":3,"parameterNumberName":"V-component_of_CURRENTS"},"data":[0,0,0,0,0,0,0,0,0,0,0,0,0,0,0,0,0,0,0,0,0,0,0,0,0,0,0,0,0,0,0,0,0,0,0,0,0,0,0,0,0,0,0,0,0,0,0,0,0,0,0,0,0,0,0,0,0,0,0.0377,0.0377,0,0.0354,0.0353,0.0353,0.035,0.035,0.0351,0.0351,0.0234,0.023,0.0226,0,0,0,0,0,0,0,0,0,0,0,0,0,0.0387,0.0386,0.0377,0.0377,0.0377,0.0354,0.0353,0.0352,0.0349,0.035,0.0351,0.0352,0.0235,0.0231,0.0226,0,0,0,0,0,0,0,0,0,0,0,0,0,0.0371,0.0386,0.0377,0.0376,0.0376,0.0354,0.0353,0.0352,0.0349,0.035,0.0351,0.0352,0.0236,0.0231,0.0226,0.0172,0,0,0.0208,0.0206,0,0,0,0,0,0,0,0,0.0371,0.037,0.0376,0.0376,0.0377,0.036,0.0314,0.0289,0.0349,0.0355,0.0352,0.0353,0.0269,0.0261,0.0249,0.0166,0.0161,0.0208,0.0205,0.0202,0.0201,0,0,0,0,0,0,0,0.0373,0.037,0.0363,0.0377,0.0377,0.0367,0.0365,0.0309,0.0302,0.0354,0.0355,0.036,0.0268,0.0255,0.0246,0.0159,0.0208,0.0203,0.02,0.0197,0.0003,0.0001,0,0,0,0,0,0,0.0385,0.0372,0.0364,0.0363,0.0381,0.0366,0.0364,0.036,0.0304,0.0299,0.0359,0.036,0.0264,0.0253,0.0242,0.0167,0.0202,0.0197,0.0194,0.0005,0.0003,0.0001,0,0,0,0,0,0,0.0385,0.0384,0.0365,0.0371,0.0369,0.0366,0.0361,0.0359,0.036,0.031,0.0302,0.0364,0.0264,0.025,0.0193,0.0163,0.0194,0.0189,0.0007,0.0004,0.0002,0.0022,0,0,0,0,0,0,0.0385,0.0384,0.039,0.0372,0.0369,0.0357,0.036,0.0359,0.0363,0.0364,0.031,0.03,0.0264,0.0201,0.0187,0.0156,0.0185,0.0009,0.0006,0.0002,0.0023,0.002,0.0017,0,0,0,0,0,0.0386,0.0398,0.039,0.0389,0.0375,0.0357,0.0353,0.0352,0.0362,0.0357,0.0319,0.0302,0.0169,0.0196,0.0179,0.0146,0.0011,0.0007,0.0003,0.0025,0.0021,0.0017,0,0,0,0,0,0,0.0421,0.0398,0.0389,0.0398,0.0378,0.0358,0.0366,0.0358,0.0326,0.0329,0.0283,0.0268,0.02,0.0169,0.02,0.0077,0.0085,0.0078,0.0107,0.0103,0.01,0.0126,0.018,0,0,0,0,0,0.0426,0.0426,0.0397,0.0409,0.0399,0.0381,0.0378,0.0369,0.034,0.033,0.0289,0.0235,0.0166,0.0137,0.0075,0.0015,-0.0023,-0.002,-0.0023,-0.0025,-0.0018,-0.0164,-0.018,-0.0013,-0.0013,-0.0013,0,0,0.045,0.0438,0.0441,0.0416,0.0405,0.0384,0.0381,0.0377,0.0357,0.0317,0.028,0.0221,0.0146,0.0074,0.0041,0.005,-0.0078,-0.0031,-0.0032,-0.0023,-0.017,-0.0187,-0.0201,-0.0016,-0.0015,-0.0015,0,0,0.0492,0.0477,0.0483,0.0455,0.0433,0.0408,0.0408,0.0376,0.036,0.0312,0.0265,0.019,0.0114,0.0039,-0.0006,-0.0066,-0.0095,-0.008,-0.0071,-0.0213,-0.0228,-0.0242,-0.0237,-0.0251,-0.0077,-0.0077,-0.0077,0,0.0514,0.0518,0.0485,0.047,0.045,0.0419,0.0404,0.0375,0.0328,0.031,0.0305,0.0157,0.0089,-0.0018,-0.0039,-0.0075,-0.0106,-0.0045,-0.0217,-0.0232,-0.0246,-0.0239,-0.0254,-0.0076,-0.0076,-0.0076,-0.0076,0,0.0549,0.0541,0.0545,0.0504,0.047,0.0461,0.0401,0.039,0.0367,0.0321,0.023,0.0127,0.0054,-0.0004,-0.0037,-0.0172,-0.0138,-0.0207,-0.0201,-0.0262,-0.0249,-0.0265,-0.0075,-0.0076,-0.0076,-0.0076,0,0,0.061,0.0576,0.0576,0.0567,0.0484,0.0473,0.0433,0.0386,0.0399,0.0296,0.0256,0.0107,0.0068,0.0014,-0.006,-0.0193,-0.0309,-0.0228,-0.0236,-0.0207,-0.0517,-0.0436,-0.0445,-0.0417,-0.0422,-0.0426,-0.0439,0,0.0644,0.0644,0.06,0.0588,0.0569,0.0515,0.0502,0.0447,0.0398,0.0349,0.0199,0.0152,0.0068,0.0064,-0.0109,-0.0271,-0.0363,-0.0291,-0.0476,-0.0478,-0.0391,-0.0468,-0.044,-0.0451,-0.0455,-0.0458,-0.046,0,0.0673,0.067,0.067,0.0649,0.0642,0.0647,0.063,0.0586,0.0491,0.0485,0.0367,0.027,0.0092,0.0023,-0.028,-0.0226,-0.0352,-0.0483,-0.0488,-0.0436,-0.0432,-0.0401,-0.049,-0.0487,-0.0485,-0.0483,-0.0481,0,0.0729,0.071,0.0726,0.0707,0.0681,0.0716,0.07,0.0641,0.0628,0.0568,0.0548,0.035,0.0244,0.0006,-0.024,-0.0258,-0.0578,-0.0636,-0.0662,-0.0651,-0.0723,-0.0709,-0.0845,-0.0845,-0.0845,-0.0845,-0.0845,0,0.075,0.076,0.0789,0.0803,0.0871,0.0791,0.0858,0.0856,0.0796,0.072,0.0612,0.0533,0.0215,-0.0011,-0.022,-0.0472,-0.055,-0.0656,-0.0686,-0.07,-0.0685,-0.0729,-0.0715,-0.0845,-0.0845,-0.0845,-0.0845,0,0.0751,0.0781,0.0812,0.086,0.0902,0.0927,0.0979,0.1003,0.0967,0.0846,0.0837,0.0647,0.0393,0.0108,-0.0253,-0.0416,-0.0654,-0.0708,-0.0592,-0.0614,-0.0614,-0.06,-0.0731,-0.0729,-0.0727,-0.0726,-0.0725,0,0.0738,0.0765,0.087,0.0932,0.097,0.1038,0.11,0.1121,0.1083,0.0889,0.0793,0.0596,0.0428,0.006,-0.0236,-0.0535,-0.0608,-0.0656,-0.0747,-0.0605,-0.0621,-0.0609,-0.0597,-0.0722,-0.0722,-0.0721,-0.0721,0,0.0698,0.0763,0.0767,0.0919,0.1029,0.1136,0.1174,0.1193,0.1084,0.1038,0.0831,0.0635,0.0343,0.0081,-0.0119,-0.0375,-0.06,-0.0641,-0.0647,-0.0734,-0.0596,-0.0611,-0.0601,-0.0715,-0.0716,-0.0716,-0.0717,0,0.0635,0.0664,0.0732,0.085,0.1026,0.1174,0.1205,0.1162,0.1161,0.0913,0.0852,0.0567,0.041,0.0163,-0.0064,-0.0254,-0.0336,-0.0397,-0.0419,-0.0428,-0.0363,-0.0145,-0.0156,0,0,0,0,0,0.0589,0.0639,0.0687,0.0841,0.1016,0.1148,0.122,0.1204,0.1106,0.098,0.0921,0.0671,0.035,0.0242,0.0066,-0.0074,-0.0387,-0.0287,-0.0471,-0.0683,-0.069,-0.0663,0,0,0,0,0,0,0.0563,0.0601,0.0639,0.0832,0.0963,0.1149,0.1237,0.1135,0.1084,0.0952,0.0833,0.0665,0.0408,0.0465,0.008,0.0011,-0.0122,-0.0451,-0.0454,-0.068,-0.0686,-0.0691,-0.0666,0,0,0,0,0]}]]